TimeMST,TemperatureF,Dew PointF,Humidity,Sea Level PressureIn,VisibilityMPH,Wind Direction,Wind SpeedMPH,Gust SpeedMPH,PrecipitationIn,Events,Conditions,WindDirDegrees,DateUTC
12:53 AM,10.0,-2.9,56,30.28,10.0,WNW,16.1,-,N/A,,Clear,300,2012-12-20 07:53:00
1:53 AM,12.9,-2.0,51,30.27,10.0,NW,25.3,-,N/A,,Clear,320,2012-12-20 08:53:00
2:53 AM,10.0,-2.0,58,30.29,10.0,NNW,18.4,-,N/A,,Clear,330,2012-12-20 09:53:00
3:53 AM,7.0,-2.9,64,30.31,10.0,WNW,15.0,-,N/A,,Clear,290,2012-12-20 10:53:00
4:53 AM,3.0,-6.0,66,30.33,10.0,West,13.8,-,N/A,,Clear,280,2012-12-20 11:53:00
5:53 AM,6.1,-5.1,60,30.34,10.0,West,15.0,-,N/A,,Clear,270,2012-12-20 12:53:00
6:53 AM,7.0,-5.1,58,30.36,10.0,West,16.1,-,N/A,,Clear,270,2012-12-20 13:53:00
7:53 AM,9.0,-5.1,53,30.40,10.0,West,15.0,-,N/A,,Clear,270,2012-12-20 14:53:00
8:53 AM,12.0,-2.9,51,30.41,10.0,West,13.8,-,N/A,,Clear,280,2012-12-20 15:53:00
9:53 AM,19.9,1.9,46,30.39,10.0,West,16.1,-,N/A,,Clear,270,2012-12-20 16:53:00
10:53 AM,21.9,3.9,46,30.38,10.0,West,15.0,-,N/A,,Clear,270,2012-12-20 17:53:00
12:53 PM,27.0,6.1,41,30.31,10.0,West,10.4,-,N/A,,Clear,270,2012-12-20 19:53:00
1:53 PM,28.0,10.0,47,30.30,10.0,SW,10.4,-,N/A,,Clear,230,2012-12-20 20:53:00
2:53 PM,30.0,9.0,41,30.31,10.0,SW,8.1,-,N/A,,Clear,220,2012-12-20 21:53:00
3:53 PM,28.9,10.9,47,30.32,10.0,SW,9.2,-,N/A,,Clear,220,2012-12-20 22:53:00
4:53 PM,28.9,10.0,45,30.34,10.0,SW,10.4,-,N/A,,Clear,220,2012-12-20 23:53:00
5:53 PM,27.0,10.9,51,30.34,10.0,SSW,11.5,-,N/A,,Clear,210,2012-12-21 00:53:00
6:53 PM,30.0,9.0,41,30.33,10.0,SSW,12.7,-,N/A,,Clear,210,2012-12-21 01:53:00
7:53 PM,28.0,10.0,47,30.33,10.0,SW,5.8,-,N/A,,Clear,220,2012-12-21 02:53:00
8:53 PM,30.0,10.9,45,30.31,10.0,SW,19.6,-,N/A,,Clear,230,2012-12-21 03:53:00
9:53 PM,28.9,10.0,45,30.29,10.0,WSW,18.4,-,N/A,,Clear,240,2012-12-21 04:53:00
10:53 PM,28.0,9.0,45,30.30,10.0,SW,12.7,-,N/A,,Clear,230,2012-12-21 05:53:00
11:53 PM,28.9,9.0,43,30.28,10.0,SW,13.8,-,N/A,,Clear,220,2012-12-21 06:53:00